Location: Whitehorse
(60.7170°N, 135.0500°W)
Time: 19:10:58
(UTC-07:00)

OTV 5 (USA 277) - Visible Passes

Search period start: 22 April 2019 00:00
Search period end: 02 May 2019 00:00
Orbit: 309 x 326 km, 54.5° (Epoch: 21 April)

Date Brightness Start Highest point End Pass type
(mag) Time Alt. Az. Time Alt. Az. Time Alt. Az.
24 Apr ? 23:18:04 10° S 23:18:38 12° S 23:18:38 12° S visible
25 Apr ? 23:31:59 10° SSW 23:33:52 17° SSE 23:33:52 17° SSE visible
26 Apr ? 23:46:16 10° SW 23:48:24 21° S 23:48:37 20° SSE visible
28 Apr ? 00:00:42 10° SW 00:02:55 22° S 00:03:03 22° S visible
29 Apr ? 00:15:17 10° WSW 00:17:19 21° SSW 00:17:19 21° SSW visible
29 Apr ? 22:55:58 10° SW 22:58:10 22° S 23:00:21 10° ESE visible
30 Apr ? 00:29:58 10° WSW 00:31:29 17° SSW 00:31:29 17° SSW visible
30 Apr ? 23:10:28 10° WSW 23:12:40 22° S 23:14:41 11° SE visible
01 May ? 00:44:56 10° SW 00:45:34 12° SW 00:45:34 12° SW visible
01 May ? 23:25:06 10° WSW 23:27:10 19° SSW 23:28:44 13° SSE visible
